AirNav   Air Wisconsin Up To $57,000 Bonus
 
 537 users online  

II13 Sugar Creek Air Park
Markleville, Indiana, USA

GOING TO MARKLEVILLE?


FAA INFORMATION EFFECTIVE 25 MARCH 2021

Location

FAA Identifier: II13
Lat/Long: 39-55-13.0000N 085-35-55.0000W
39-55.216667N 085-35.916667W
39.9202778,-85.5986111
(estimated)
Elevation: 1000 ft. / 305 m (estimated)
From city: 4 miles S of MARKLEVILLE, IN
Time zone: UTC -4 (UTC -5 during Standard Time)
Zip code: 47384

Airport Operations

Airport use: Private use. Permission required prior to landing
Activation date: 02/2008
Control tower: no
ARTCC: INDIANAPOLIS CENTER
FSS: TERRE HAUTE FLIGHT SERVICE STATION
Attendance: UNATNDD
Wind indicator: yes
Segmented circle: no

Airport Communications

WX AWOS-3 at AID (11 nm N): 128.55 (765-442-1245)
WX AWOS-3 at MQJ (15 nm W): 124.175 (317-335-3037)

Nearby radio navigation aids

VOR radial/distance  VOR name  Freq  Var
SHBr030/20.2SHELBYVILLE VOR/DME112.0001E
MIEr209/21.2MUNCIE VOR/DME114.4003W
MZZr177/34.6MARION VOR/DME108.6003W
VHPr079/36.0BRICKYARD VORTAC116.3001E

 
NDB name  Hdg/Dist  Freq  Var  ID
VIDEO207/9.839403WAI .- ..
NEW CASTLE287/13.138506WUWL ..- .-- .-..
METROPOLITAN096/20.833803WUMP ..- -- .--.
BATESVILLE340/37.825405WHLB .... .-.. -...

Airport Services

Runway Information

Runway 18/36

Dimensions: 1870 x 150 ft. / 570 x 46 m
Surface: turf
RUNWAY 18  RUNWAY 36
Traffic pattern: leftleft

Airport Ownership and Management from official FAA records

Ownership: Privately-owned
Owner: JEFF ROBERT & PHILLIP JONES
5968 CARROLL RD
INDIANAPOLIS, IN 46235
Phone 317-979-0707
Manager: JEFF ROBERTS
5968 CARROL RD
INDIANAPOLIS, IN 46235
Phone 317-326-3890

Airport Operational Statistics

Aircraft based on the field: 1
Single engine airplanes: 1
    

Additional Remarks

FOR CD CTC INDIANAPOLIS APCH AT 317-227-5743.

Instrument Procedures

There are no published instrument procedures at II13.

Some nearby airports with instrument procedures:

KAID - Anderson Municipal Airport-Darlington Field (11 nm N)
KUWL - New Castle Henry County Airport / Marlatt Field (13 nm E)
KMQJ - Indianapolis Regional Airport (15 nm W)
KUMP - Indianapolis Metro Airport (21 nm W)
KMIE - Delaware County Regional Airport (21 nm NE)
 
Loc | Ops | Rwys | IFR | FBO | Links
Com | Nav | Svcs | Stats | Notes
Aerial photo
No photo
 
Sectional chart

 
Airport distance calculator
Flying to Sugar Creek Air Park? Find the distance to fly.

From to II13

Sunrise and sunset
Times for 19-Apr-2021
 Local
(UTC-4)
 Zulu
(UTC)
Morning civil twilight06:3110:31
Sunrise07:0011:00
Sunset20:2300:23
Evening civil twilight20:5200:52

Current date and time
Zulu (UTC)  19-Apr-2021 10:36:07
Local (UTC-4)  19-Apr-2021 06:36:07
 
METAR
KAID 
12nm N 
191015Z AUTO 00000KT 10SM CLR 06/04 A2988 RMK AO2 T00640039
KMQJ 
14nm W 
191015Z AUTO 00000KT 10SM SCT110 05/05 A2988 RMK AO1
KMIE 
21nm NE 
190953Z 23005KT 10SM CLR 08/04 A2986 RMK AO2 SLP109 T00830039
KGEZ 
22nm SW 
190953Z AUTO 25004KT 10SM CLR 07/03 A2989 RMK AO2 SLP120 T00720028
TAF
KIND 
34nm W 
190520Z 1906/2012 22007KT P6SM FEW080 SCT100 FM191900 25013G22KT P6SM FEW100 FM200400 29006KT P6SM SCT045 FM200600 34006KT P6SM BKN060 FM200800 01006KT P6SM BKN029
NOTAMs
Click for the latest NOTAMs
NOTAMs are issued by the DoD/FAA and will open in a separate window not controlled by AirNav.

 

 
 

Would you like to see your business listed on this page?

 If your business provides an interesting product or service to pilots, flight crews, aircraft, or users of the Sugar Creek Air Park, you should consider listing it here.  To start the listing process, click on the button below
 
Add a business
 

Other Pages about Sugar Creek Air Park

Update a link
 
Copyright © AirNav, LLC. All rights reserved. Privacy Policy  Contact